Regional Weather Roundup
Issued by NWS

Home | Current Version | Previous Version | Text Only | Print | Product List | Glossary Off
Versions: 1 2 3 4 5 6 7 8 9 10 11 12 13 14 15 16 17 18 19 20 21 22 23 24 25 26 27

000
ASUS45 KBOU 261407
RWRCO

WEATHER ROUNDUP FOR COLORADO
NATIONAL WEATHER SERVICE DENVER/BOULDER CO
700 AM MST SUN FEB 26 2017

NOTE: "FAIR" INDICATES FEW OR NO CLOUDS BELOW 12000 FEET WITH NO
SIGNIFICANT WEATHER AND/OR OBSTRUCTIONS TO VISIBILITY.

COZ001>005-013-030-031-261500-
...NORTHWEST COLORADO...

CITY           SKY/WX    TMP DP  RH WIND       PRES   REMARKS
CRAIG          FAIR       1  -5  75 CALM      29.92R
HAYDEN         FAIR       7   0  72 E9        29.88S WCI  -7
MEEKER         FAIR       1  -4  79 CALM      29.91S
MOUNT WERNER   NOT AVBL
STEAMBOAT SPGS FAIR       4  -1  80 CALM      29.88R
WALDEN         NOT AVBL
$$

COZ006>008-011-261500-
...WEST CENTRAL VALLEYS...

CITY           SKY/WX    TMP DP  RH WIND       PRES   REMARKS
GRAND JUNCTION FAIR      16  10  77 E3        29.93F
MONTROSE       FAIR      17  13  84 SE5       29.94F WCI  10
EAGLE          CLEAR      9   1  72 E5        29.93S WCI   0
RIFLE          FAIR      13   9  84 CALM      29.95S
DELTA          FAIR      19   8  64 NE6       29.94S WCI  10
NUCLA          FAIR      19  16  86 E7        29.95S WCI  10
$$

COZ017>023-064>068-261500-
...SOUTHWEST COLORADO...

CITY           SKY/WX    TMP DP  RH WIND       PRES   REMARKS
DURANGO        FAIR      17   9  70 CALM      29.87R
CORTEZ         MOCLDY    18  15  88 NE3       29.91S
PAGOSA SPRINGS FAIR      13   6  72 CALM      29.85S
TELLURIDE      FAIR      10   8  89 CALM      29.84F
WOLF CREEK PAS SNOW       1   0  92 SW13      29.77S VSB 1/2 WCI -16
$$

COZ009-010-012-014-032>034-037-058>063-261500-
...CENTRAL COLORADO...

CITY           SKY/WX    TMP DP  RH WIND       PRES   REMARKS
ASPEN          FAIR       3  -3  76 SW7       29.84S WCI  -9
BUENA VISTA    FAIR      15  -7  37 N5        29.77S WCI   7
COPPER MTN     FAIR       1 -15  46 MISG      29.65F
BERTHOUD PASS  HAZE      -9 -18  64 NW33G45   29.54F VSB 1   WCI -40
COTTONWOOD PAS FAIR      14  -8  37 NW13G29   29.69S WCI   0
GUNNISON       FAIR       5   0  79 NE3       29.87S
KREMMLING      MOCLDY     3   0  85 CALM      29.89R
LEADVILLE      FAIR      -1 -12  59 NE8       29.73S WCI -15
MONARCH PASS   CLOUDY     0  -6  78 W38G44    29.71R WCI -29
SALIDA         FAIR      21   1  42 SW15G24   29.86S WCI   8
SUNLIGHT       NOT AVBL
WILKERSON PASS FAIR       3 -15  43 W16G28    29.62S WCI -16
$$

COZ069>075-261500-
...SAN LUIS VALLEY/SANGRE DE CRISTO MOUNTAINS...

CITY           SKY/WX    TMP DP  RH WIND       PRES   REMARKS
ALAMOSA        FAIR      13   6  74 N3        29.83R
LA VETA PASS   CLOUDY    10   3  72 S13G24    29.73S WCI  -5
SAGUACHE       FAIR      12   5  73 NW8       29.84R WCI   1
$$

COZ035-036-038>040-261500-
...NORTHERN COLORADO FRONT RANGE...

CITY           SKY/WX    TMP DP  RH WIND       PRES   REMARKS
DENVER INTL AP FAIR      14   4  64 SE13      29.78S WCI   0
DMNS CITY PARK   N/A     18   7  61 SE12      29.79S WCI   5
AURORA         PTCLDY    13   2  62 SE3       29.78S
FRONT RANGE AP CLEAR     16   9  73 SE7       29.79  WCI   6
ERIE MUNI ARPT FAIR      19   6  58 CALM      29.79S
BOULDER MUN AP FAIR      19   9  63 CALM      29.78S
CENTENNIAL     FAIR      15   1  53 S3        29.77R
BROOMFIELD     CLEAR     19   5  53 SE3       29.77S
FORT COLLINS   FAIR      15   8  73 CALM      29.81R
LONGMONT       FAIR      19  10  66 SW3       29.82S
$$

COZ041-046-047-076>085-087-088-261500-
...PIKES PEAK/PALMER DIVIDE AND SOUTHERN FOOTHILLS...

CITY           SKY/WX    TMP DP  RH WIND       PRES   REMARKS
COLO. SPRINGS  FAIR      19  -1  41 W3        29.78R
A. F. ACADEMY  FAIR      16  -3  42 CALM      29.75R
SCHRIEVER AFB  FAIR      17  -1  45 NE7       29.78R WCI   8
ELLICOTT       NOT AVBL
FALCON         FAIR      14  -3  46 N6        29.76R WCI   5
FORT CARSON    FAIR      16  -1  47 E5        29.77R WCI   9
LIMON          FAIR       4  -1  80 NW6       29.80S WCI  -7
MONUMENT HILL  FAIR       7  -2  66 S6        29.75S WCI  -3
TRINIDAD       FAIR      14   2  58 S5        29.82R WCI   6
$$

COZ042>045-048>051-090-091-261500-
...NORTHEAST COLORADO...

CITY           SKY/WX    TMP DP  RH WIND       PRES   REMARKS
GREELEY ARPT   FAIR       9   6  88 N3        29.82S
AKRON          FAIR      17   5  59 NW3       29.82S
BURLINGTON     FAIR       8   2  76 W6        29.86S WCI  -2
WRAY           NOT AVBL
STERLING       FAIR      18   5  57 W3        29.84S
HOLYOKE        FAIR      14   9  79 W7        29.86S WCI   4
FORT MORGAN    FAIR      19   4  52 CALM      29.83S
$$

COZ086-089-092>099-261500-
...SOUTHEAST COLORADO...

CITY           SKY/WX    TMP DP  RH WIND       PRES   REMARKS
PUEBLO         FAIR      12   0  58 N3        29.83R
LA JUNTA       FAIR      17   6  62 VRB5      29.85S WCI  10
LAMAR          FAIR       8   1  73 CALM      29.86R
SPRINGFIELD      N/A     14   3  61 W3        29.83R
$$




USA.gov is the U.S. government's official web portal to all federal, state and local government web resources and services.